Flag for Germany Weather past 2 weeks in Stuhr, Lower Saxony, Germany

Now
52 °F

Passing clouds.


Feels Like: 49 °F
Forecast: 47 / 58 °F
Wind: 9 mph from South

Location: Bremen Airport

Current Time: Oct 25, 2014 at 2:17:16 AM

Latest Report: Oct 25, 2014 at 1:50 AM


Visibility: N/A

Pressure: 30.01 "Hg

Humidity: 82%

Dew point: 46 °F

Location of StuhrLocation

Historic Weather in Stuhr — Graph

°F

Stuhr temperature yesterday

Maximum temperature yesterday: 57 °F (at 12:20 PM)
Minimum temperature yesterday: 50 °F (at 6:50 AM)
Average temperature yesterday: 53 °F

Past Weeks' High & Low Weather Summary

 TemperatureHumidityPressure
High73 °F (Oct 19, 1:50 PM)100% (Oct 11, 5:50 AM)30.18 "Hg (Oct 11, 5:50 AM)
Low43 °F (Oct 23, 4:50 AM)56% (Oct 14, 2:50 PM)29.39 "Hg (Oct 21, 4:50 PM)
Average55 °F87%29.86 "Hg
* Reported Oct 10 1:20 AM — Oct 25 1:20 AM, Stuhr, Weather by CustomWeather, © 2014

Note: Actual official high and low records may vary slightly from our data, if they occured in-between our weather recording intervals... More about our weather records

Advertising

Stuhr weather history for previous 24 hours

 ConditionsComfort  
Time TempWeatherWind HumidityBarometerVisibility
1:20 AM
Oct 25
52 °FPassing clouds.8 mph82%30.01 "HgN/A
12:50 AM54 °FPassing clouds.8 mph77%30.01 "HgN/A
12:20 AM54 °FPassing clouds.9 mph77%30.04 "HgN/A
11:50 PM
Oct 24
54 °FPassing clouds.8 mph77%30.04 "HgN/A
11:20 PM54 °FLight rain. Passing clouds.8 mph77%30.04 "HgN/A
10:50 PM54 °FPassing clouds.8 mph77%30.04 "HgN/A
10:20 PM54 °FPassing clouds.7 mph82%30.04 "HgN/A
9:50 PM52 °FPassing clouds.8 mph88%30.04 "HgN/A
9:20 PM52 °FLight rain. Passing clouds.6 mph88%30.04 "HgN/A
8:50 PM52 °FPartly cloudy.9 mph88%30.04 "HgN/A
8:20 PM52 °FClear.9 mph88%30.04 "Hg10 mi
7:50 PM54 °FPassing clouds.8 mph77%30.07 "HgN/A
7:20 PM52 °FPartly cloudy.8 mph82%30.07 "HgN/A
6:50 PM54 °FBroken clouds.9 mph77%30.07 "HgN/A
6:20 PM54 °FSunny.9 mph77%30.07 "Hg10 mi
5:50 PM54 °FPartly sunny.8 mph77%30.07 "HgN/A
5:20 PM54 °FBroken clouds.8 mph77%30.07 "HgN/A
4:50 PM55 °FPartly sunny.8 mph72%30.07 "HgN/A
4:20 PM55 °FPartly sunny.9 mph72%30.09 "HgN/A
3:50 PM55 °FPartly sunny.10 mph72%30.09 "HgN/A
3:20 PM55 °FCool.12 mph72%30.09 "HgN/A
2:50 PM55 °FPartly sunny.14 mph72%30.09 "HgN/A
2:20 PM55 °FBroken clouds.14 mph72%30.09 "HgN/A
1:50 PM55 °FBroken clouds.14 mph72%30.09 "HgN/A
1:20 PM55 °FScattered clouds.13 mph77%30.12 "HgN/A
12:50 PM57 °FBroken clouds.15 mph67%30.12 "HgN/A
12:20 PM57 °FPartly sunny.12 mph72%30.12 "HgN/A
11:50 AM55 °FBroken clouds.9 mph82%30.12 "HgN/A
11:20 AM55 °FBroken clouds.12 mph77%30.12 "HgN/A
10:50 AM55 °FPartly sunny.9 mph77%30.12 "HgN/A
10:20 AM52 °FPartly sunny.12 mph88%30.12 "HgN/A
9:50 AM54 °FBroken clouds.10 mph82%30.12 "HgN/A
9:20 AM52 °FPartly sunny.10 mph88%30.12 "HgN/A
8:50 AM52 °FPassing clouds.10 mph88%30.12 "HgN/A
8:20 AM50 °FPassing clouds.8 mph94%30.12 "HgN/A
7:50 AM50 °FPassing clouds.7 mph94%30.12 "HgN/A
7:20 AM50 °FClear.8 mph94%30.12 "Hg10 mi
6:50 AM50 °FClear.8 mph94%30.12 "Hg10 mi
6:20 AM52 °FPassing clouds.8 mph88%30.12 "HgN/A
5:50 AM52 °FPassing clouds.8 mph88%30.12 "HgN/A
5:20 AM52 °FPassing clouds.8 mph88%30.12 "HgN/A
4:50 AM52 °FPassing clouds.7 mph88%30.12 "HgN/A
4:20 AM52 °FPassing clouds.8 mph88%30.12 "HgN/A
3:50 AM52 °FPassing clouds.7 mph88%30.12 "HgN/A
3:20 AM54 °FPassing clouds.9 mph82%30.15 "HgN/A
2:50 AM52 °FPassing clouds.9 mph88%30.15 "HgN/A
2:20 AM52 °FPassing clouds.8 mph88%30.15 "HgN/A
Weather by CustomWeather, © 2014

See weather overviewHow to use our weather pages